Truckee, CA

1:50 PM PST on February 24, 2017 (GMT -0800)
Truckee-Tahoe

Weather History for KTRK - August, 2014

Change the Weather History Date:

Thursday, August 14, 2014

  Actual Average Record
Temperature  
Mean Temperature 54 °F -  
Max Temperature 75 °F 81 °F 91 °F (2002)
Min Temperature 33 °F 40 °F 25 °F (1974)
Degree Days  
Heating Degree Days 11    
Growing Degree Days 4 (Base 50)    
Moisture  
Dew Point 40 °F    
Average Humidity 71    
Maximum Humidity 100    
Minimum Humidity 27    
Precipitation  
Precipitation 0.00 in - - ()
Sea Level Pressure  
Sea Level Pressure 30.17 in    
Wind  
Wind Speed 3 mph (SW)    
Max Wind Speed 18 mph    
Max Gust Speed 26 mph    
Visibility 8 miles    
Events Fog    
Averages and records for this station are not official NWS values.
T = Trace of Precipitation, MM = Missing Value Source: NWS Daily Summary

Daily Weather History Graph

Daily Weather History Graph

Search for Another Location

Airport or City:

Trip Planner

Search our weather history database for the weather conditions in past years. The results will help you decide how hot, cold, wet, or windy it might be!

Date:

Astronomy

Aug. 14, 2014 Rise Set
Actual Time 6:12 AM PDT 7:57 PM PDT
Civil Twilight 5:43 AM PDT 8:25 PM PDT
Nautical Twilight 5:08 AM PDT 9:00 PM PDT
Astronomical Twilight 4:31 AM PDT 9:37 PM PDT
Moon 10:25 PM PDT (8/14) 10:53 AM PDT (8/14)
Length of Visible Light 14h 42m
Length of Day
13h 44m
Waning Gibbous, 78% of the Moon is Illuminated
Aug 14
Waning Gibbous
Aug 17
Last Quarter
Aug 25
New
Sep 2
First Quarter
Sep 8
Full

Hourly Weather History & Observations

Time (PDT) Temp. Windchill Dew Point Humidity Pressure Visibility Wind Dir Wind Speed Gust Speed Precip Events Conditions
12:15 AM 44.6 °F - 41.0 °F 87% 30.17 in 10.0 mi Calm Calm - N/A   Clear
12:35 AM 42.8 °F - 41.0 °F 93% 30.17 in 10.0 mi Calm Calm - N/A   Clear
12:55 AM 44.6 °F - 41.0 °F 87% 30.17 in 10.0 mi Calm Calm - N/A   Clear
1:15 AM 42.8 °F - 41.0 °F 93% 30.17 in 10.0 mi Calm Calm - N/A   Clear
1:35 AM 41.0 °F - 41.0 °F 100% 30.17 in 10.0 mi Calm Calm - N/A   Clear
1:55 AM 42.8 °F - 41.0 °F 93% 30.17 in 10.0 mi Calm Calm - N/A   Clear
2:15 AM 41.0 °F - 41.0 °F 100% 30.17 in 10.0 mi Calm Calm - N/A   Clear
2:35 AM 42.8 °F - 42.8 °F 100% 30.17 in 10.0 mi Calm Calm - N/A   Clear
2:55 AM 41.0 °F - 39.2 °F 93% 30.17 in 5.0 mi Calm Calm - N/A   Clear
3:15 AM 39.2 °F - 39.2 °F 100% 30.17 in 5.0 mi Calm Calm - N/A   Clear
3:35 AM 37.4 °F - 37.4 °F 100% 30.17 in 0.5 mi Calm Calm - N/A Fog Fog
3:55 AM 37.4 °F 34.9 °F 37.4 °F 100% 30.17 in 10.0 mi SE 3.5 mph - N/A   Scattered Clouds
4:15 AM 35.6 °F - 35.6 °F 100% 30.17 in 1.5 mi Calm Calm - N/A   Mist
4:35 AM 41.0 °F - 41.0 °F 100% 30.17 in 5.0 mi Calm Calm - N/A   Scattered Clouds
4:55 AM 37.4 °F - 37.4 °F 100% 30.17 in 0.5 mi Calm Calm - N/A Fog Fog
5:15 AM 37.4 °F - 37.4 °F 100% 30.16 in 7.0 mi Calm Calm - N/A   Scattered Clouds
5:35 AM 33.8 °F - 33.8 °F 100% 30.16 in 0.2 mi Calm Calm - N/A Fog Fog
5:55 AM 35.6 °F - 35.6 °F 100% 30.16 in 0.5 mi Calm Calm - N/A Fog Fog
6:15 AM 33.8 °F - 33.8 °F 100% 30.17 in 0.2 mi Calm Calm - N/A Fog Fog
6:35 AM 33.8 °F - 33.8 °F 100% 30.17 in 5.0 mi Calm Calm - N/A   Mostly Cloudy
6:55 AM 35.6 °F - 35.6 °F 100% 30.17 in 10.0 mi Calm Calm - N/A   Partly Cloudy
7:55 AM 44.6 °F - 42.8 °F 93% 30.17 in 10.0 mi Calm Calm - N/A   Clear
8:50 AM 53.6 °F - 42.8 °F 67% 30.17 in 10.0 mi Calm Calm - N/A   Partly Cloudy
10:55 AM 69.8 °F - 41.0 °F 35% 30.17 in 10.0 mi SSW 11.5 mph 19.6 mph N/A   Scattered Clouds
11:50 AM 71.6 °F - 41.0 °F 33% 30.17 in 10.0 mi SSW 6.9 mph 19.6 mph N/A   Scattered Clouds
12:50 PM 71.6 °F - 41.0 °F 33% 30.16 in 10.0 mi WSW 16.1 mph 23.0 mph N/A   Partly Cloudy
1:50 PM 73.4 °F - 41.0 °F 31% 30.16 in 10.0 mi SSW 18.4 mph 26.5 mph N/A   Partly Cloudy
2:50 PM 75.2 °F - 39.2 °F 27% 30.15 in 10.0 mi SSW 15.0 mph 26.5 mph N/A   Scattered Clouds
3:55 PM 75.2 °F - 39.2 °F 27% 30.14 in 10.0 mi SSW 16.1 mph 23.0 mph N/A   Scattered Clouds
4:55 PM 73.4 °F - 41.0 °F 31% 30.13 in 10.0 mi WSW 9.2 mph 20.7 mph N/A   Partly Cloudy
5:55 PM 71.6 °F - 42.8 °F 35% 30.13 in 10.0 mi West 9.2 mph 16.1 mph N/A   Partly Cloudy
6:15 PM 69.8 °F - 41.0 °F 35% 30.13 in 10.0 mi West 12.7 mph - N/A   Clear
6:35 PM 69.8 °F - 41.0 °F 35% 30.14 in 10.0 mi WSW 9.2 mph 17.3 mph N/A   Clear
6:55 PM 69.8 °F - 41.0 °F 35% 30.14 in 10.0 mi WSW 6.9 mph - N/A   Clear
7:15 PM 68.0 °F - 42.8 °F 40% 30.15 in 10.0 mi SW 8.1 mph - N/A   Clear
7:35 PM 64.4 °F - 42.8 °F 45% 30.15 in 10.0 mi SW 6.9 mph - N/A   Clear
7:55 PM 62.6 °F - 42.8 °F 48% 30.16 in 10.0 mi WSW 6.9 mph - N/A   Clear
8:15 PM 62.6 °F - 42.8 °F 48% 30.16 in 10.0 mi West 8.1 mph - N/A   Clear
8:35 PM 60.8 °F - 44.6 °F 55% 30.17 in 10.0 mi West 8.1 mph - N/A   Clear
8:55 PM 60.8 °F - 44.6 °F 55% 30.17 in 10.0 mi West 8.1 mph - N/A   Clear
9:15 PM 57.2 °F - 42.8 °F 59% 30.18 in 10.0 mi SW 6.9 mph - N/A   Clear
9:35 PM 51.8 °F - 42.8 °F 71% 30.19 in 10.0 mi SW 5.8 mph - N/A   Clear
9:55 PM 51.8 °F - 42.8 °F 71% 30.19 in 10.0 mi ESE 5.8 mph - N/A   Clear
10:15 PM 51.8 °F - 41.0 °F 67% 30.19 in 10.0 mi ESE 3.5 mph - N/A   Clear
10:35 PM 50.0 °F - 41.0 °F 71% 30.20 in 10.0 mi Calm Calm - N/A   Clear
10:55 PM 48.2 °F - 41.0 °F 76% 30.20 in 10.0 mi Calm Calm - N/A   Clear
11:15 PM 50.0 °F - 42.8 °F 76% 30.19 in 10.0 mi Calm Calm - N/A   Clear
11:35 PM 46.4 °F - 39.2 °F 76% 30.19 in 10.0 mi Calm Calm - N/A   Clear
11:55 PM 46.4 °F - 41.0 °F 81% 30.20 in 10.0 mi Calm Calm - N/A   Clear